J Percy Priest Observed Data For Previous 48 Hours

Caption
Day and Hour Reservoir Elevation (behind dam)* Tailwater Elevation (below dam)* Average Hourly Discharge*
3/18/2019 1 AM CDT 486.52 407.72 5,000
3/18/2019 2 AM CDT 486.50 407.64 0
3/18/2019 3 AM CDT 486.49 407.49 0
3/18/2019 4 AM CDT 486.48 407.33 0
3/18/2019 5 AM CDT 486.48 407.17 0
3/18/2019 6 AM CDT 486.49 407.08 0
3/18/2019 7 AM CDT 486.45 407.45 5,000
3/18/2019 8 AM CDT 486.42 407.29 5,000
3/18/2019 9 AM CDT 486.39 407.51 5,000
3/18/2019 10 AM CDT 486.38 407.56 5,000
3/18/2019 11 AM CDT 486.34 407.54 5,000
3/18/2019 12 PM CDT 486.31 407.71 5,000
3/18/2019 1 PM CDT 486.29 407.84 5,000
3/18/2019 2 PM CDT 486.26 407.86 5,000
3/18/2019 3 PM CDT 486.23 407.86 5,000
3/18/2019 4 PM CDT 486.21 407.81 5,000
3/18/2019 5 PM CDT 486.22 407.78 5,000
3/18/2019 6 PM CDT 486.21 407.75 5,000
3/18/2019 7 PM CDT 486.14 407.83 5,000
3/18/2019 8 PM CDT 486.10 407.80 5,000
3/18/2019 9 PM CDT 486.08 407.80 5,000
3/18/2019 10 PM CDT 486.05 407.78 5,000
3/18/2019 11 PM CDT 486.03 407.79 5,000
3/19/2019 12 AM CDT 486.00 407.79 5,000
3/19/2019 1 AM CDT 486.01 407.43 0
3/19/2019 2 AM CDT 486.01 407.35 0
3/19/2019 3 AM CDT 486.03 407.21 0
3/19/2019 4 AM CDT 486.03 407.21 0
3/19/2019 5 AM CDT 486.03 407.16 0
3/19/2019 6 AM CDT 486.03 407.30 5,000
3/19/2019 7 AM CDT 486.00 407.38 5,000
3/19/2019 8 AM CDT 485.96 407.40 5,000
3/19/2019 9 AM CDT 485.94 407.46 5,000
3/19/2019 10 AM CDT 485.89 407.42 5,000
3/19/2019 11 AM CDT 485.84 407.40 5,000
3/19/2019 12 PM CDT 485.85 407.25 5,000
3/19/2019 1 PM CDT 485.80 407.15 5,000
3/19/2019 2 PM CDT 485.78 407.12 5,000
3/19/2019 3 PM CDT 485.76 407.12 5,000
3/19/2019 4 PM CDT 485.74 407.12 5,000
3/19/2019 5 PM CDT 485.72 407.00 5,000
3/19/2019 6 PM CDT 485.70 406.98 5,000
3/19/2019 7 PM CDT 485.67 406.93 5,000
3/19/2019 8 PM CDT 485.63 406.89 5,000
3/19/2019 9 PM CDT 485.60 406.84 5,000
3/19/2019 10 PM CDT 485.56 406.79 5,000
3/19/2019 11 PM CDT 485.54 406.83 5,000
3/20/2019 12 AM CDT 485.51 406.76 5,000
3/20/2019 1 AM CDT 485.53 406.37 0
3/20/2019 2 AM CDT 485.51 406.19 0
3/20/2019 3 AM CDT 485.54 406.06 0
3/20/2019 4 AM CDT 485.54 405.87 0
3/20/2019 5 AM CDT 485.57 405.70 0
3/20/2019 6 AM CDT 485.54 406.12 5,000

Elevations are in feet above sea level. Discharges are in cubic feet per second and are reported at the end of the hour.